This is the latest recevied weather packets stored in our database for station/object DG0LHZ-10. If no packets are shown the sender has not sent any weather packets the latest 10 day(s).
| Time | Temp. | Humidity | Pressure | Rain* | Wind** | Luminosity | Snow |
|---|---|---|---|---|---|---|---|
| 1777834164 | 28.89° C | 25% | 1012.4 hPa | - | - | - | - |
| 1777833264 | 29.44° C | 25% | 1012.2 hPa | - | - | - | - |
| 1777832363 | 30° C | 25% | 1012.1 hPa | - | - | - | - |
| 1777831463 | 30.56° C | 24% | 1011.8 hPa | - | - | - | - |
| 1777830563 | 31.11° C | 23% | 1011.5 hPa | - | - | - | - |
| 1777829663 | 31.67° C | 23% | 1011.5 hPa | - | - | - | - |
| 1777828763 | 32.22° C | 23% | 1011.6 hPa | - | - | - | - |
| 1777827863 | 32.78° C | 22% | 1011.7 hPa | - | - | - | - |
| 1777826963 | 33.33° C | 23% | 1011.8 hPa | - | - | - | - |
| 1777826063 | 33.33° C | 22% | 1011.8 hPa | - | - | - | - |
| 1777825163 | 33.89° C | 22% | 1011.8 hPa | - | - | - | - |
| 1777824263 | 33.89° C | 23% | 1011.9 hPa | - | - | - | - |
| 1777823363 | 34.44° C | 22% | 1011.9 hPa | - | - | - | - |
| 1777822463 | 35° C | 21% | 1012.1 hPa | - | - | - | - |
| 1777821563 | 35° C | 22% | 1012.1 hPa | - | - | - | - |
| 1777820663 | 35° C | 21% | 1012.3 hPa | - | - | - | - |
| 1777819763 | 35° C | 21% | 1012.5 hPa | - | - | - | - |
| 1777818862 | 35.56° C | 23% | 1012.7 hPa | - | - | - | - |
| 1777817962 | 35° C | 22% | 1013 hPa | - | - | - | - |
| 1777817062 | 35.56° C | 23% | 1013.2 hPa | - | - | - | - |
| 1777816162 | 35° C | 22% | 1013.3 hPa | - | - | - | - |
| 1777815262 | 35° C | 23% | 1013.5 hPa | - | - | - | - |
| 1777814361 | 34.44° C | 23% | 1013.7 hPa | - | - | - | - |
| 1777813461 | 34.44° C | 24% | 1013.9 hPa | - | - | - | - |
| 1777812561 | 34.44° C | 24% | 1014.1 hPa | - | - | - | - |
* Rain since midnight (hover to see other rain measurements)
** Current wind speed in m/s (hover to see current wind gust speed)